This demonstration page uses our WeatherBlox Daily Observations layout. Learn more.

Left ArrowRight Arrow

41.86663, -103.66717

Hourly Observations for April 6, 2016

Temp ( °F °C ) Dew Point ( °F °C ) Humidity (%) Winds ( mph kmh ) Pressure ( in mb ) Visibility ( mi km ) Precip ( " mm )
12:53 am 00:53 Clear 45 7.2 23 -5 42 42 NW 28 44 30.03 1017 10 16 N/A
1:53 am 01:53 Clear 42 5.6 23 -5 47 47 WNW 14 22 30.06 1018 10 16 N/A
2:53 am 02:53 Clear 41 5 23 -5 49 49 NW 23 37 30.06 1018 10 16 N/A
3:53 am 03:53 Clear 40 4.4 23 -5 51 51 NW 17 28 30.06 1018 10 16 N/A
4:53 am 04:53 Clear 38 3.3 24 -4.4 57 57 WNW 9 15 30.08 1019 10 16 N/A
5:53 am 05:53 Clear 36 2.2 24 -4.4 62 62 WNW 10 17 30.10 1019 10 16 N/A
6:53 am 06:53 Sunny 35 1.7 24 -4.4 64 64 WNW 13 20 30.13 1020 10 16 N/A
7:53 am 07:53 Sunny 39 3.9 25 -3.9 57 57 WNW 14 22 30.14 1021 10 16 N/A
8:53 am 08:53 Sunny 45 7.2 25 -3.9 46 46 WNW 15 24 30.14 1021 10 16 N/A
9:53 am 09:53 Sunny 51 10.6 23 -5 33 33 WNW 21 33 30.13 1020 10 16 N/A
10:53 am 10:53 Sunny 56 13.3 22 -5.6 27 27 WNW 23 37 30.11 1020 10 16 N/A
11:53 am 11:53 Sunny 58 14.4 21 -6.1 24 24 WNW 22 35 30.05 1018 10 16 N/A
12:53 pm 12:53 Sunny 63 17.2 22 -5.6 21 21 WNW 25 41 30.00 1016 10 16 N/A
1:53 pm 13:53 Sunny 66 18.9 22 -5.6 19 19 NW 23 37 29.94 1014 10 16 N/A
2:53 pm 14:53 Sunny 70 21.1 22 -5.6 16 16 NW 30 48 29.91 1013 10 16 N/A
3:53 pm 15:53 Sunny 71 21.7 24 -4.4 17 17 WNW 28 44 29.89 1012 10 16 N/A
4:53 pm 16:53 Mostly Sunny 70 21.1 25 -3.9 18 18 NW 30 48 29.88 1012 10 16 N/A
5:53 pm 17:53 Partly Cloudy 66 18.9 26 -3.3 22 22 NNW 26 43 29.88 1012 10 16 N/A
6:53 pm 18:53 Mostly Cloudy 65 18.3 25 -3.9 22 22 NNW 24 39 29.89 1012 10 16 N/A
7:53 pm 19:53 Mostly Cloudy 59 15 27 -2.8 29 29 N 16 26 29.92 1013 10 16 N/A
8:53 pm 20:53 Clear 56 13.3 30 -1.1 37 37 N 15 24 29.96 1015 10 16 N/A
9:53 pm 21:53 Clear 49 9.4 31 -0.6 50 50 NNW 8 13 30.00 1016 10 16 N/A
10:53 pm 22:53 Mostly Clear 47 8.3 33 0.6 59 59 WSW 8 13 30.01 1016 10 16 N/A
11:53 pm 23:53 Partly Cloudy 50 10 33 0.6 52 52 W 6 9 30.03 1017 10 16 N/A

Powered by AerisWeather